GFSNW_925_spd_000.txt.gz
Wind_Speed
23 22 23 20 19 23 15 8 5 4 7 8 10 16 19 12 17 22 24 17 20 19 16 16 14 12 9 8 16 24 22 15 15 19 27 29 26 25 26 17 27 20 22 18
22 21 20 18 18 15 17 5 8 7 9 8 13 15 15 15 21 21 21 27 22 19 18 20 17 16 12 9 10 14 20 18 14 19 19 18 27 31 27 26 20 26 20 18
21 19 20 17 14 12 11 5 4 6 7 11 12 16 13 19 16 19 24 21 19 23 23 19 10 12 13 10 16 8 6 18 22 16 22 21 25 26 30 30 23 23 26 21
21 20 19 17 13 9 8 5 4 2 6 6 5 11 14 14 15 14 14 21 22 19 20 21 20 17 10 10 8 6 6 15 16 21 21 19 24 28 28 31 32 29 23 29
21 21 21 18 12 8 10 4 5 5 10 12 14 12 13 14 14 9 16 16 19 21 20 19 17 21 18 17 14 15 13 11 10 17 22 24 22 26 27 26 27 31 33 31
20 19 19 17 13 9 6 5 9 5 9 8 7 11 13 9 6 11 16 15 11 9 8 9 10 10 13 14 12 13 14 13 10 16 15 20 24 27 27 29 27 24 25 28
20 19 18 18 15 15 13 8 4 3 10 10 8 10 11 13 14 15 18 14 13 3 10 15 15 16 18 18 19 17 10 13 12 12 1 13 15 19 23 26 28 24 20 17
21 20 18 18 15 15 17 12 5 3 6 11 14 15 16 13 14 16 17 17 16 13 12 7 11 13 17 23 22 21 18 14 10 11 14 11 18 8 17 22 25 28 21 20
22 20 18 17 15 15 18 17 17 3 3 8 10 11 11 10 9 12 11 9 13 9 7 10 15 16 15 16 18 21 19 16 13 8 14 18 3 12 15 14 15 23 25 17
18 17 15 14 13 10 16 10 19 7 4 14 15 14 11 8 10 6 4 6 6 5 8 12 12 16 18 15 20 18 16 16 19 10 10 8 11 13 6 9 8 21 17 19
16 15 14 13 11 8 12 13 19 11 4 12 22 22 17 10 10 7 7 6 4 4 5 8 10 10 11 15 18 23 18 15 11 7 9 15 9 2 1 14 14 7 10 13
14 15 10 10 9 9 9 6 12 17 6 8 26 27 23 22 23 14 6 7 6 3 4 3 5 4 3 12 12 3 14 14 8 11 8 5 6 1 1 7 4 8 12 17
12 9 10 9 8 9 9 11 10 6 5 11 15 15 19 29 32 21 10 5 5 3 4 5 3 6 4 6 4 14 4 7 7 9 5 9 9 6 8 6 6 15 12 17
7 9 9 8 7 6 7 7 9 9 5 5 3 1 5 6 17 30 32 18 6 5 6 3 3 4 6 1 3 4 6 4 9 5 6 13 13 10 7 4 7 13 14 15
8 7 7 7 5 8 9 11 12 12 5 6 11 26 7 8 20 18 24 20 14 6 5 4 2 4 4 2 3 4 7 6 3 6 9 9 9 9 3 10 12 13 16 18
7 6 4 5 6 7 7 3 1 8 11 5 4 8 3 1 12 18 14 11 7 8 5 2 3 8 4 3 2 7 7 4 4 4 9 15 15 8 9 10 13 13 16 16
7 6 6 5 6 5 5 3 5 3 7 2 4 4 2 2 8 6 7 10 5 6 6 3 2 4 1 2 3 8 7 9 12 16 14 13 11 8 12 9 12 14 15 13
10 10 9 8 9 8 6 1 7 8 5 3 3 4 3 7 5 6 6 6 5 5 3 2 3 1 3 4 7 8 12 14 15 14 16 12 15 10 6 7 8 13 9 6
14 14 10 3 3 3 1 5 7 12 3 3 3 3 2 1 2 4 5 5 5 3 1 2 3 3 4 6 11 12 12 10 12 11 13 10 12 11 7 8 8 9 6 5
11 5 4 1 1 8 7 3 3 5 5 4 4 4 5 5 3 6 6 4 5 2 2 4 3 5 9 7 9 8 10 12 8 10 10 11 7 7 8 11 9 7 6 6
7 4 3 9 11 4 3 1 2 2 3 4 3 4 6 2 3 1 2 2 7 3 3 2 3 2 4 6 6 7 8 10 8 7 6 6 4 6 6 7 6 4 6 7
9 10 8 5 3 2 4 3 4 3 3 1 5 7 4 3 3 4 3 1 2 5 3 3 3 4 5 6 7 7 5 4 5 8 3 3 3 5 3 2 3 5 4 5
2 2 3 4 2 2 5 8 4 3 6 5 7 6 2 4 5 4 2 2 4 5 3 3 4 8 9 7 4 10 9 10 8 6 5 5 6 6 5 3 5 2 3 4
3 5 5 5 4 4 2 6 6 6 7 10 7 5 3 3 3 3 3 4 1 4 4 4 6 8 9 8 6 7 8 7 7 6 5 5 7 8 7 6 4 5 6 6
3 2 3 4 5 5 4 4 5 4 7 6 3 4 4 5 3 4 4 4 5 6 3 4 7 7 9 8 9 8 7 6 5 3 4 5 6 6 8 7 7 7 7 7
0 2 2 7 6 11 11 10 9 8 8 3 2 2 3 6 4 7 7 4 5 3 3 3 5 7 6 7 7 7 6 5 5 5 5 6 8 6 4 6 8 8 6 7
5 4 8 8 7 9 9 10 10 9 4 4 3 5 6 4 5 4 4 2 3 2 4 4 7 5 4 5 6 6 6 5 6 5 4 5 4 6 5 6 8 9 7 6

GFSNW_925_spd_003.txt.gz
Wind_Speed
24 23 23 22 22 24 20 12 7 8 6 10 10 19 26 25 28 23 28 22 25 24 24 20 20 18 23 17 19 26 24 16 15 21 25 27 29 28 32 18 28 20 22 18
23 22 22 19 18 15 18 8 12 23 19 14 15 22 27 28 28 27 27 25 29 24 26 23 21 19 21 8 15 19 20 19 16 21 20 24 30 29 31 33 22 26 22 20
22 22 21 18 14 12 11 6 6 8 10 13 21 22 23 23 21 21 21 23 26 26 30 25 22 25 23 16 14 5 8 20 23 18 22 19 26 31 31 30 23 22 26 25
23 21 20 16 14 9 6 5 9 8 11 10 13 15 20 16 20 20 23 22 28 27 25 27 26 26 20 26 17 13 15 21 23 25 24 19 23 29 30 33 30 28 24 30
23 20 20 15 12 9 6 5 6 7 12 19 19 15 19 18 18 16 24 22 23 24 24 22 23 26 23 20 20 20 20 18 18 20 23 24 24 22 30 29 32 33 33 31
23 21 18 15 11 11 6 9 16 7 8 16 15 13 17 24 18 14 14 22 16 22 9 16 18 19 16 23 17 22 20 16 17 20 21 18 23 27 25 24 27 27 29 30
22 20 18 18 14 14 13 9 7 6 12 10 14 20 11 18 18 16 17 13 10 18 30 23 18 14 11 9 12 16 18 19 15 17 16 21 16 19 26 27 26 26 27 24
21 20 19 19 17 15 20 12 4 3 8 12 14 18 16 14 19 21 20 16 16 17 22 12 7 9 10 17 16 18 16 14 17 16 18 10 16 3 3 11 17 22 25 25
20 20 18 17 15 14 18 18 15 4 3 10 6 11 15 14 13 15 18 10 6 8 9 9 13 13 12 17 22 22 21 16 13 14 23 24 17 11 7 6 14 15 17 16
19 18 16 14 13 11 13 12 14 6 4 9 19 14 7 16 7 10 6 4 5 11 6 11 14 17 20 22 28 16 21 20 22 18 17 16 6 5 4 8 9 15 14 18
16 15 13 14 12 11 11 10 14 13 3 10 20 24 21 17 12 8 7 5 4 3 8 11 14 15 19 21 23 25 22 20 19 18 22 23 7 7 6 8 13 14 13 15
13 14 13 8 8 8 8 9 12 15 7 10 24 28 27 23 21 14 11 8 2 4 4 3 6 5 8 18 15 25 23 20 16 18 14 9 9 11 6 7 8 8 6 6
13 11 8 10 9 9 13 11 12 8 4 10 16 18 25 28 34 29 11 10 4 2 9 3 3 6 4 7 10 18 6 19 17 11 12 10 11 11 9 10 4 7 9 10
9 9 9 9 9 8 8 8 7 6 4 5 10 3 3 6 14 27 26 18 5 5 7 6 3 5 5 3 4 3 5 10 9 16 15 16 14 13 10 9 10 14 16 19
10 9 9 8 7 9 11 13 14 15 4 6 12 23 19 18 19 16 23 19 12 7 4 2 3 3 3 6 2 5 6 6 1 8 17 16 14 12 13 14 13 12 12 13
11 10 9 8 9 10 10 2 1 5 11 6 5 9 5 3 13 12 13 10 8 4 1 4 4 5 4 4 4 7 6 13 7 13 19 21 18 18 17 14 12 14 13 11
12 12 11 10 11 10 5 4 6 10 1 2 4 4 5 7 11 9 7 10 4 3 2 5 3 3 5 2 3 6 7 10 12 16 17 14 10 8 12 13 13 11 10 11
17 16 15 14 14 14 10 4 6 5 3 3 3 5 4 15 9 7 8 7 6 6 5 3 1 2 3 1 4 9 9 16 18 17 17 16 14 14 13 13 15 12 13 13
16 15 14 9 6 4 2 2 6 8 3 2 3 2 3 7 2 2 9 9 8 5 2 3 1 2 3 6 8 8 8 9 13 16 19 19 18 15 12 13 10 14 8 10
10 6 4 3 2 6 7 6 4 3 5 4 4 7 4 7 4 7 7 6 2 2 4 0 3 3 6 6 7 8 10 9 6 9 11 13 15 11 6 8 8 3 8 7
6 3 3 13 12 4 3 2 3 4 4 5 3 6 6 7 4 2 4 2 3 1 4 0 2 2 2 6 9 7 8 8 8 9 7 8 9 4 5 2 3 7 4 3
8 10 10 7 3 2 3 4 4 3 2 3 2 3 5 2 3 3 2 2 1 4 3 3 2 3 7 7 8 6 6 7 9 6 8 4 6 7 4 5 4 3 4 1
3 3 3 5 3 3 5 6 0 4 7 6 4 5 4 3 2 4 5 5 3 6 3 3 2 4 5 7 8 6 7 9 7 4 1 2 2 8 9 6 4 7 5 5
3 4 4 4 4 4 4 9 7 5 5 5 2 4 3 6 1 3 7 5 4 3 3 2 4 5 4 6 8 11 9 6 8 8 8 6 6 9 9 9 9 7 8 4
3 3 5 4 5 9 10 8 9 8 9 7 3 4 5 6 5 3 4 5 5 5 2 4 4 6 3 5 6 7 7 5 6 7 7 7 7 8 9 10 8 7 7 7
1 2 3 4 8 12 12 12 12 11 8 4 1 5 4 8 5 7 8 4 4 4 2 6 4 7 7 4 3 7 7 9 7 5 9 10 8 6 8 9 8 10 10 6
3 3 10 9 9 9 11 11 11 12 10 8 5 7 6 3 4 5 5 3 2 5 5 4 3 6 6 4 6 5 6 6 8 8 6 2 2 9 10 7 6 3 6 3

GFSNW_925_spd_006.txt.gz
Wind_Speed
26 26 25 24 23 24 21 13 9 11 6 11 11 18 27 26 31 32 29 29 31 30 29 27 27 29 27 23 21 26 26 17 19 26 25 28 29 29 27 17 21 19 20 16
27 25 24 23 19 15 16 8 13 29 27 15 15 23 30 29 29 29 32 32 30 26 30 27 29 27 26 25 27 25 20 21 16 24 24 25 30 28 25 26 21 21 19 16
26 25 24 21 16 12 10 5 6 10 11 17 24 23 26 27 27 26 29 24 28 31 28 28 27 27 29 20 22 7 8 18 26 18 21 18 25 30 28 26 18 21 22 20
26 24 23 19 14 10 7 4 7 15 10 17 8 16 22 21 25 23 20 16 19 19 21 26 27 28 29 26 23 14 15 16 21 28 29 25 25 29 29 27 26 22 21 27
25 24 23 20 12 8 6 4 7 10 15 22 23 12 19 20 25 19 19 12 22 20 19 15 17 21 24 24 25 19 22 17 18 24 25 27 24 27 28 29 29 27 26 25
25 22 21 19 12 8 5 6 12 5 11 18 16 17 20 17 23 20 19 17 17 17 16 22 25 25 27 26 21 22 20 17 16 21 25 23 24 26 22 23 24 25 22 23
24 21 19 18 14 13 12 7 3 2 6 14 16 22 21 16 23 15 16 19 4 17 16 22 24 24 25 24 25 25 20 20 16 17 19 24 17 19 24 23 18 20 23 21
23 20 18 17 17 15 18 17 5 3 4 11 17 24 18 18 20 25 19 22 17 9 8 7 13 12 20 21 24 19 15 18 14 15 17 15 19 18 12 9 13 16 17 17
21 18 17 17 15 13 14 19 17 3 3 9 20 16 17 16 17 14 17 18 16 6 5 3 2 4 11 15 16 11 16 5 9 13 17 23 20 7 6 4 9 10 11 11
18 16 16 15 14 12 12 13 14 4 3 8 18 15 14 10 9 9 17 11 6 8 6 5 4 7 11 11 18 11 11 9 13 12 14 15 7 4 5 10 2 7 8 8
17 16 14 13 15 11 10 11 10 10 4 11 17 23 19 15 9 8 5 7 7 9 12 10 7 10 9 12 17 10 8 9 11 11 11 15 14 17 18 4 3 5 8 9
15 13 13 10 8 9 8 10 10 10 5 8 26 26 31 29 23 14 9 7 7 4 4 1 4 7 5 12 12 17 13 14 11 12 11 9 7 10 6 7 6 13 13 13
14 12 10 10 11 10 10 15 14 6 3 10 14 17 27 31 35 31 13 9 9 5 4 2 2 5 4 5 10 17 15 12 15 15 13 4 11 9 8 11 19 18 20 21
14 13 11 11 11 11 10 10 11 6 3 5 11 11 19 20 21 28 25 19 6 5 2 4 3 3 2 4 7 8 6 10 12 14 15 14 12 10 11 17 17 18 19 21
15 13 13 12 11 12 13 16 16 16 4 4 11 25 29 21 18 13 18 17 12 8 3 1 2 2 3 3 3 3 5 4 4 1 11 13 12 10 14 17 18 18 19 19
18 16 15 14 13 12 11 3 2 6 10 3 6 14 14 19 21 14 12 11 10 6 2 1 2 6 4 3 2 4 7 5 8 5 5 21 20 18 19 19 18 18 18 15
22 20 18 17 15 12 7 5 5 16 11 3 5 6 6 11 10 10 8 11 7 4 3 3 2 4 3 1 2 6 6 3 9 12 8 12 17 12 16 18 19 19 16 16
24 19 17 16 16 16 12 9 5 4 4 1 3 5 5 10 9 6 8 7 4 3 2 2 4 1 2 2 1 3 8 11 8 8 13 13 16 16 17 17 17 19 17 17
17 15 15 8 5 4 1 2 3 4 4 2 3 3 5 8 3 5 4 3 4 5 4 3 0 0 2 6 4 5 8 5 14 12 13 14 15 15 16 14 14 15 15 15
13 9 5 2 1 4 2 2 2 3 4 4 4 6 3 3 5 4 6 8 5 3 2 0 2 2 5 10 6 6 6 6 8 17 15 14 14 12 11 10 8 9 10 10
5 3 3 14 12 3 3 3 4 3 4 4 4 7 7 5 4 5 2 2 2 3 2 0 2 2 3 7 7 7 7 8 9 10 12 10 9 7 6 5 5 7 0 2
7 10 10 7 3 1 3 5 5 3 3 3 4 5 7 1 4 6 4 3 2 4 1 3 2 2 3 4 5 7 5 8 9 7 4 5 6 10 8 6 6 7 13 17
4 3 4 5 1 4 4 5 4 3 3 3 4 8 3 5 6 1 2 4 3 5 3 3 2 1 2 4 6 13 5 2 3 4 2 8 7 9 8 6 5 4 8 8
3 4 5 4 3 3 4 10 7 7 2 10 4 1 5 3 2 1 5 4 5 3 3 4 2 3 7 9 5 8 8 7 2 6 6 10 15 10 12 10 10 13 8 8
3 4 4 5 5 6 11 11 4 6 8 9 7 4 7 4 1 2 3 4 5 5 4 2 2 4 2 2 7 5 4 6 8 10 11 9 9 10 9 18 18 14 11 9
2 2 9 9 11 14 14 14 10 14 2 3 2 8 5 7 5 7 8 3 5 3 2 2 1 3 8 7 10 5 8 7 9 9 7 10 14 7 11 10 10 10 9 11
5 7 9 10 9 8 11 11 12 11 12 11 6 8 8 6 5 5 4 3 4 5 4 5 6 8 5 7 7 14 11 4 5 6 16 9 9 5 7 7 15 18 15 3

GFSNW_925_spd_009.txt.gz
Wind_Speed
30 29 28 26 25 25 15 8 5 26 31 6 8 13 16 20 23 24 25 21 26 26 26 28 23 24 22 18 25 22 19 15 14 23 19 20 24 12 13 8 9 6 9 15
29 29 27 25 23 18 13 5 8 22 14 5 8 12 21 23 23 22 23 25 23 23 27 25 24 26 26 22 18 21 14 18 11 14 14 19 19 21 12 19 4 13 6 17
28 27 26 24 20 16 8 4 5 5 9 5 13 12 12 16 19 20 18 19 19 16 18 17 17 25 20 22 23 15 14 12 26 18 13 6 9 21 22 16 15 14 23 13
28 27 25 23 16 12 4 2 5 10 7 11 19 10 11 17 13 13 18 13 17 20 16 20 12 15 23 21 24 13 6 18 18 17 17 18 25 15 25 22 20 15 13 19
27 26 23 22 15 7 4 2 4 5 10 13 17 17 12 16 15 9 16 16 18 18 6 18 18 19 17 11 16 20 12 10 10 8 12 21 21 19 19 26 23 19 17 20
25 24 22 19 12 6 4 5 7 2 5 11 11 12 16 16 17 10 13 18 12 14 16 14 15 18 20 21 25 24 12 5 4 10 7 8 15 27 20 11 23 21 19 19
23 22 22 19 14 11 12 7 4 2 6 9 12 21 21 18 19 13 14 16 17 14 3 10 16 18 20 22 22 17 19 15 8 6 6 8 10 9 12 14 7 13 10 12
21 20 21 17 15 12 15 15 5 2 6 9 17 18 18 16 16 16 17 15 19 15 4 5 7 10 16 18 19 16 15 11 6 5 8 3 8 11 4 7 10 1 8 8
19 18 18 17 16 12 12 17 14 3 4 6 15 15 16 14 9 11 13 13 13 9 6 1 2 3 6 8 16 11 14 7 3 3 6 14 5 5 9 5 2 6 10 8
18 17 17 15 16 13 12 9 7 4 3 7 11 9 9 10 5 5 11 8 9 6 8 5 3 5 3 6 7 6 5 3 4 5 6 4 4 5 5 4 4 4 7 6
18 17 16 16 14 10 6 10 8 9 3 11 15 20 16 13 9 5 4 5 6 4 4 5 4 5 6 5 9 10 4 9 7 4 4 3 8 6 6 3 6 9 9 8
19 16 15 12 12 12 9 9 9 8 6 6 26 33 34 29 25 13 4 5 2 3 4 4 3 2 2 0 3 2 3 7 4 8 5 3 6 7 2 7 10 10 11 11
18 17 16 14 14 13 11 16 16 10 4 8 10 13 25 31 35 32 12 7 8 4 3 3 2 4 2 3 3 6 6 7 5 8 8 3 7 7 12 10 14 10 11 12
20 18 17 16 15 14 12 15 16 7 3 4 7 17 21 25 23 29 34 19 15 7 2 3 1 3 3 1 3 1 1 7 4 6 5 8 15 10 16 16 15 11 13 17
23 21 20 18 16 16 16 18 20 17 4 3 9 28 25 22 28 31 28 21 10 4 2 1 2 3 3 3 3 3 2 3 2 2 8 7 2 8 11 15 13 12 14 14
28 26 24 20 17 15 13 3 3 7 3 3 4 11 12 20 13 13 12 8 5 7 3 2 1 2 2 3 2 2 4 10 5 3 5 14 16 19 15 17 15 15 13 12
30 26 24 20 15 11 5 5 2 8 16 2 5 5 3 13 11 3 3 6 6 3 2 1 2 2 6 3 3 6 8 5 7 3 7 15 17 11 11 15 16 18 17 15
29 23 20 17 15 13 10 10 14 10 4 1 3 4 5 9 5 2 3 4 3 3 1 0 1 2 3 3 5 7 8 7 5 9 12 14 7 16 14 13 12 16 15 14
26 20 20 7 3 3 2 4 3 8 4 2 2 3 3 4 2 2 3 2 1 2 2 2 3 0 2 5 12 7 10 6 13 9 11 12 8 8 4 8 9 12 11 11
17 9 4 2 3 8 2 1 1 2 2 2 4 3 4 3 1 1 3 3 3 3 4 3 1 1 6 10 4 5 7 8 8 9 8 7 9 5 6 4 3 7 6 7
7 4 2 10 11 4 1 2 2 1 2 3 4 3 5 1 3 3 3 1 5 1 1 1 2 3 5 10 5 5 4 7 6 6 6 5 4 5 5 4 4 2 4 5
10 12 12 7 2 2 2 3 2 3 3 3 4 3 1 2 3 3 3 2 3 2 1 3 2 3 5 8 7 6 7 6 3 1 2 2 2 3 6 5 2 4 1 3
4 3 3 2 3 5 5 3 4 3 3 4 4 3 2 3 4 2 1 2 3 2 3 3 3 3 5 7 6 5 3 5 6 7 10 3 3 8 8 7 14 14 11 11
2 3 8 4 5 3 6 8 5 6 5 9 4 2 1 1 2 1 3 4 2 4 4 4 2 6 7 5 5 5 6 5 1 5 13 8 10 11 18 18 16 16 12 15
2 3 3 5 8 10 10 11 3 5 5 4 3 2 2 2 3 5 6 5 5 5 3 1 1 5 4 3 5 8 5 4 4 12 11 8 9 9 12 19 16 14 13 15
2 2 7 10 11 12 13 12 11 12 11 4 5 6 5 7 4 6 7 4 5 3 3 3 5 8 11 10 12 13 12 11 12 10 7 8 13 10 12 12 11 17 12 14
3 6 9 4 6 10 11 9 11 8 12 10 4 7 8 3 5 5 4 3 4 4 3 3 2 4 3 1 13 11 10 13 18 19 16 8 18 21 19 12 16 26 20 23

GFSNW_925_spd_015.txt.gz
Wind_Speed
29 29 28 27 26 25 15 6 4 15 24 5 3 4 13 11 9 9 3 3 4 3 5 3 2 5 5 13 7 5 6 3 14 17 7 19 19 16 9 7 12 6 7 11
28 27 27 25 23 18 11 4 3 9 6 4 5 7 7 14 13 6 5 5 5 6 2 2 3 5 6 14 10 6 7 4 2 6 4 3 10 12 13 10 4 21 9 7
27 27 26 22 19 13 7 3 4 4 4 2 3 5 4 10 15 6 9 3 3 4 4 5 4 4 3 13 6 11 2 3 4 5 5 4 7 11 20 17 11 17 20 8
28 25 23 19 16 11 4 1 3 1 4 4 5 6 5 6 9 8 11 4 7 4 2 2 2 1 7 10 7 6 4 3 3 5 13 14 15 12 25 20 23 16 18 12
27 23 20 17 14 7 3 2 2 2 4 3 5 5 5 5 5 4 4 8 12 2 4 4 4 5 2 5 5 6 3 4 6 5 9 10 15 20 25 24 23 18 17 8
25 22 20 16 13 3 3 3 4 1 4 3 2 3 2 9 14 6 10 7 11 5 3 5 9 12 10 7 3 3 2 1 5 5 8 11 11 25 20 23 13 17 19 9
22 22 20 17 12 5 7 5 3 3 4 6 6 10 13 13 12 13 16 15 3 5 5 8 8 6 10 13 12 10 3 4 1 5 6 8 10 9 17 18 8 9 5 10
21 20 20 18 14 7 8 11 4 2 5 7 11 12 9 9 8 13 12 14 4 6 6 4 4 4 2 13 19 18 16 5 2 3 3 9 12 4 9 13 14 7 12 10
21 20 19 17 16 13 11 12 11 3 3 4 5 3 8 8 6 5 4 6 5 2 2 3 5 4 3 4 5 20 17 17 5 3 4 6 0 18 21 14 17 9 10 11
22 20 19 19 15 11 9 7 9 5 3 6 7 6 4 4 2 5 5 5 4 2 1 3 4 5 4 4 4 4 6 7 14 11 5 8 9 25 11 5 8 6 8 6
23 21 20 18 16 14 10 11 13 8 3 9 15 16 13 9 5 5 4 5 1 3 2 2 3 4 6 5 6 5 9 10 6 8 8 8 13 10 9 10 15 6 6 4
25 24 22 19 17 16 12 8 9 8 5 6 21 25 30 31 27 7 4 5 3 3 1 1 2 3 4 5 4 4 6 7 8 6 6 2 1 8 13 10 6 8 4 5
28 25 23 22 20 17 13 15 12 8 3 8 8 9 21 23 33 33 6 5 6 4 3 2 2 5 4 3 6 5 6 5 8 3 6 3 9 10 14 13 7 9 7 8
29 28 25 22 20 19 17 17 15 8 3 4 6 9 14 19 19 29 39 20 3 2 2 3 3 3 3 3 4 3 5 6 13 5 5 1 9 8 12 11 9 9 11 10
33 31 26 23 20 19 18 22 25 23 6 3 6 21 10 7 16 23 28 24 12 7 3 4 3 3 4 4 2 4 6 7 7 7 4 2 6 7 11 4 6 9 10 11
38 31 26 21 15 12 6 3 3 8 17 3 4 5 5 9 10 15 13 14 7 5 4 3 4 5 4 3 3 4 4 6 5 3 4 8 13 4 9 8 6 8 10 8
39 31 22 14 10 10 5 4 3 11 3 2 4 4 5 5 3 0 2 9 4 4 3 4 4 3 1 3 4 8 9 9 7 11 10 9 10 9 7 4 7 11 13 11
36 26 19 12 7 9 11 24 25 23 1 2 3 4 4 5 3 2 1 3 3 1 2 2 2 1 2 5 10 12 13 10 13 15 7 14 16 10 4 2 5 14 11 9
29 22 6 5 4 4 6 7 5 19 5 2 2 2 3 3 3 2 3 1 2 2 3 2 1 2 5 9 14 18 12 6 7 8 5 10 21 7 9 12 11 12 10 11
18 7 3 2 2 7 2 5 2 2 2 2 2 2 3 3 2 1 1 1 2 2 3 1 2 3 13 13 11 11 4 11 9 11 7 9 11 11 9 9 4 8 10 10
9 6 2 9 8 2 1 2 2 2 2 2 3 6 4 3 3 1 1 1 0 2 1 2 2 3 5 9 2 7 12 13 12 10 9 9 9 8 6 6 6 7 8 7
13 15 11 5 3 1 2 3 2 2 3 3 3 3 5 2 2 1 1 1 3 3 2 2 5 6 14 11 15 16 14 13 12 9 11 9 8 7 7 5 5 6 9 12
1 1 3 3 3 5 5 5 3 4 2 3 4 2 0 2 1 1 2 2 4 2 3 2 3 8 9 8 11 16 17 14 15 11 4 1 2 5 6 6 8 11 11 14
3 5 7 5 5 5 4 12 7 8 4 7 3 2 3 2 3 3 5 5 4 5 5 5 5 11 16 16 13 16 16 17 16 15 15 14 13 10 15 16 17 16 12 15
3 4 6 5 5 6 11 8 6 10 8 2 2 3 3 4 4 4 4 5 5 6 5 5 8 13 15 16 16 14 14 15 15 14 15 16 13 15 16 24 24 24 24 21
3 6 5 8 5 11 13 15 11 12 11 2 3 4 5 7 4 7 8 4 4 4 4 6 8 11 11 11 14 14 15 16 17 17 20 20 18 15 16 24 24 26 25 24
5 4 3 3 4 4 8 10 10 9 9 7 4 7 7 3 5 5 4 5 7 6 7 7 10 10 10 11 14 13 13 13 20 23 24 23 24 26 24 15 19 23 24 26

GFSNW_925_spd_021.txt.gz
Wind_Speed
29 29 30 29 27 28 19 6 3 20 25 6 3 5 12 7 9 9 5 7 7 5 6 4 3 3 6 12 7 0 4 3 11 17 11 21 24 18 21 11 10 12 9 8
26 27 26 25 23 22 9 5 3 9 12 5 7 9 7 6 12 10 8 7 9 6 5 3 5 4 4 12 10 5 4 4 10 9 11 8 20 23 21 19 9 16 12 5
25 25 24 23 21 19 10 3 4 3 3 1 7 10 6 9 10 5 6 9 6 9 3 3 2 4 4 9 8 8 3 1 9 14 9 3 6 8 23 23 17 18 21 17
25 25 24 23 19 17 7 3 3 2 5 5 10 8 4 10 9 6 7 2 10 11 4 3 4 7 6 4 10 6 4 1 3 2 4 4 8 10 11 16 22 22 20 26
24 23 23 22 18 14 4 3 2 1 5 7 9 4 3 9 10 9 8 5 13 12 6 8 7 10 5 3 6 6 5 0 2 5 9 10 12 12 13 15 17 16 21 23
22 22 22 21 16 11 1 2 3 2 2 6 3 3 6 12 14 8 4 7 12 14 9 10 13 12 13 13 9 4 5 1 2 5 5 10 14 21 16 15 14 15 21 17
22 21 21 19 16 11 6 5 4 3 5 4 8 13 16 15 13 11 19 15 11 5 13 16 14 11 14 13 14 11 5 2 2 5 3 9 4 3 6 11 14 19 22 19
24 22 21 21 18 12 9 10 4 2 5 8 14 11 12 12 13 12 16 13 8 11 6 6 5 3 4 10 15 15 16 8 4 5 11 16 16 5 1 4 12 6 8 17
27 24 23 22 21 15 10 11 10 4 4 5 10 9 10 10 10 7 5 9 9 5 3 2 3 3 2 3 4 7 12 13 7 4 9 11 3 7 2 4 13 5 7 12
29 28 24 23 22 19 14 9 11 6 4 7 12 8 7 3 3 4 6 5 5 3 2 3 3 4 3 4 5 4 6 8 16 14 9 7 10 3 2 8 1 9 9 13
32 29 27 25 24 21 17 10 14 10 3 9 12 16 14 13 7 5 4 7 3 2 4 3 3 3 2 5 9 6 7 6 7 12 11 19 11 11 9 5 7 12 14 13
34 30 28 27 26 24 18 9 14 17 6 7 21 29 32 28 26 9 5 4 1 2 2 2 1 3 3 4 5 5 9 11 4 9 9 13 14 14 14 9 12 13 15 15
34 31 29 27 25 22 18 14 11 7 3 8 11 9 16 17 26 28 7 5 7 5 4 2 3 6 2 4 6 10 7 7 8 10 15 20 19 18 15 11 12 15 13 13
35 31 30 27 24 19 16 15 14 11 0 3 5 5 11 11 13 22 32 19 5 2 4 4 3 3 6 4 8 8 7 8 8 12 17 19 20 17 14 12 12 10 6 8
33 34 30 27 20 15 12 13 15 18 6 3 7 23 5 4 13 18 22 23 16 5 3 4 3 3 4 5 8 10 11 11 7 10 6 10 16 13 15 12 11 5 3 4
34 34 32 22 10 7 0 2 2 10 17 1 3 4 3 4 6 13 15 14 8 5 4 4 4 12 4 4 5 8 13 16 16 15 11 17 19 18 20 14 8 4 4 2
37 33 26 13 7 10 3 3 1 8 15 2 3 4 2 4 2 4 4 12 4 4 2 4 6 9 6 3 13 20 16 14 16 16 11 18 19 14 11 10 10 5 5 6
35 24 10 5 10 6 6 13 10 12 2 1 3 4 4 3 2 2 4 5 5 5 3 3 5 4 4 7 15 14 13 14 16 17 19 20 19 14 3 9 12 8 8 9
24 1 2 3 3 1 3 2 7 7 2 1 1 2 3 4 2 3 4 3 3 3 4 3 3 2 5 13 14 14 14 10 11 10 13 15 15 12 5 11 11 11 12 9
6 2 1 2 4 6 9 3 1 1 0 0 2 1 3 2 2 2 2 1 2 2 2 4 3 4 15 20 23 21 19 16 14 13 11 9 4 10 10 5 6 10 12 13
3 4 2 4 5 4 1 1 1 1 2 2 3 4 3 3 2 2 2 1 2 2 2 2 3 3 18 22 17 9 3 7 8 13 11 10 4 12 7 5 9 9 13 15
5 4 3 3 2 2 4 4 2 1 3 2 3 3 4 3 3 2 0 1 1 4 5 4 6 10 21 20 28 27 25 25 18 15 16 16 4 8 11 10 10 9 15 25
3 1 2 4 6 7 6 7 4 6 6 3 9 6 3 2 1 2 2 6 5 4 5 4 6 15 20 22 22 25 25 28 26 24 17 17 17 27 23 16 20 16 18 23
3 5 8 6 5 5 3 8 6 6 7 11 7 4 3 2 4 4 7 6 4 6 6 6 11 18 18 18 17 19 22 24 24 25 23 22 24 22 29 25 19 18 19 24
4 5 6 5 5 5 7 6 5 6 9 5 3 1 2 4 4 4 4 7 6 6 5 6 10 13 15 16 16 17 16 16 17 17 17 18 23 20 19 23 21 24 25 27
4 6 5 8 6 11 11 10 8 10 7 1 3 6 6 8 4 7 7 4 7 4 3 6 7 12 13 13 13 14 14 14 14 18 19 20 20 19 18 23 24 25 25 25
4 3 3 3 3 6 9 10 11 12 8 5 4 7 6 4 5 6 5 5 4 5 5 5 9 10 11 10 11 15 18 19 20 20 20 18 19 22 24 16 19 23 24 25

GFSNW_925_spd_024.txt.gz
Wind_Speed
25 26 26 29 30 32 20 10 6 18 21 4 4 7 11 13 11 14 11 10 12 13 11 10 4 4 7 7 7 17 17 10 11 26 25 26 29 23 27 14 23 19 14 5
24 23 25 26 26 26 18 7 4 9 17 6 7 9 9 9 12 11 11 9 10 14 14 5 3 1 4 10 5 1 7 14 15 16 21 23 30 28 25 25 16 21 16 4
22 23 23 23 23 21 12 5 5 4 4 2 12 11 11 11 8 6 14 8 15 15 15 10 4 3 5 7 9 9 5 14 23 19 20 19 26 29 27 27 19 17 17 15
22 21 22 21 20 19 10 3 4 4 7 9 13 13 9 11 9 10 10 3 10 11 7 12 12 6 10 1 9 6 5 14 9 15 2 6 18 28 29 30 26 23 18 20
21 20 19 19 19 16 6 5 4 2 9 10 12 5 9 10 14 14 11 11 8 9 6 11 12 11 6 5 9 8 5 4 6 14 10 7 10 12 13 22 27 26 25 22
21 21 20 17 15 12 4 2 5 3 5 8 8 7 12 15 14 9 7 14 14 12 11 8 14 14 14 14 11 8 7 3 8 15 10 10 15 20 19 18 17 17 21 16
24 23 22 18 15 10 10 8 5 3 7 7 10 14 14 13 12 12 16 15 14 10 14 16 18 18 16 14 13 11 8 8 6 6 6 15 11 10 20 23 18 19 18 17
27 26 23 21 18 14 15 12 4 3 6 10 14 9 10 12 11 12 15 11 7 8 14 10 9 9 8 15 15 14 13 9 7 10 12 9 5 3 8 11 17 17 15 9
30 27 25 23 20 19 16 18 13 5 3 4 6 14 12 11 9 8 8 8 8 7 6 6 7 5 4 6 7 15 14 12 9 7 15 14 4 16 3 2 9 6 5 8
31 27 26 25 22 20 18 13 19 7 4 7 9 7 8 6 7 7 9 6 5 3 4 7 6 8 2 5 10 12 14 11 14 13 11 9 8 8 2 11 4 6 4 7
31 28 27 26 23 22 18 11 19 12 4 10 18 15 12 10 9 9 4 7 2 4 4 4 3 6 3 6 10 6 10 12 12 13 16 21 6 9 12 11 10 12 11 11
31 30 27 26 24 23 18 10 16 24 7 6 21 26 27 25 23 10 4 8 4 2 3 2 3 4 4 6 9 9 13 12 11 9 11 12 6 11 12 15 15 14 17 17
30 31 27 25 23 21 14 9 16 12 2 7 12 8 7 18 22 22 8 6 9 8 8 3 3 5 5 6 8 12 14 13 13 17 21 21 15 19 17 13 18 18 17 18
31 30 28 26 23 18 12 9 15 10 2 3 4 5 9 11 13 19 24 18 7 5 3 4 4 4 4 8 11 11 10 7 12 19 21 20 19 18 19 18 16 16 17 17
31 30 29 26 18 12 7 8 12 17 5 3 7 23 7 6 10 18 20 22 15 4 3 4 3 3 5 11 11 15 16 21 15 15 13 16 19 15 12 14 15 18 17 16
30 31 28 19 9 2 2 2 2 8 16 2 3 6 5 3 4 11 14 14 9 7 4 4 5 13 5 4 7 18 19 18 20 18 17 13 15 13 17 19 19 19 16 14
28 25 16 6 5 6 0 1 1 9 11 1 3 4 0 5 6 3 4 11 4 4 2 3 6 9 5 4 15 26 19 17 15 15 15 19 22 17 17 17 18 17 15 8
22 10 8 11 10 3 1 3 4 11 2 1 2 3 4 3 3 2 3 2 3 3 3 3 4 3 5 7 20 22 19 21 21 18 17 21 20 20 18 17 15 11 10 5
8 10 7 2 2 2 2 3 7 6 1 1 1 2 3 4 3 1 3 2 2 2 3 3 3 1 5 15 22 23 19 12 12 13 16 21 20 20 16 18 13 10 9 5
5 5 5 3 3 2 8 4 1 1 1 1 2 0 3 2 1 2 1 2 2 2 1 3 2 3 12 22 19 12 18 22 16 14 14 12 13 15 14 8 7 9 5 8
0 1 3 3 1 6 2 2 2 1 2 2 3 4 4 3 2 2 2 1 2 3 2 3 4 9 24 28 25 23 9 10 14 14 10 8 6 6 3 2 7 9 9 9
2 3 1 1 1 3 5 5 4 3 5 4 4 4 3 3 3 2 1 2 1 5 7 5 7 11 22 27 27 24 25 23 15 11 12 17 20 19 13 15 17 17 23 13
2 2 3 5 6 8 6 6 4 7 7 5 9 9 4 2 4 3 3 6 5 2 6 4 6 15 19 23 24 25 26 26 27 24 19 25 26 29 23 19 21 26 24 21
4 5 7 6 5 4 3 7 10 8 9 13 10 5 3 3 3 4 5 5 5 6 6 6 8 18 20 18 18 21 23 24 22 20 21 24 20 18 29 29 29 28 24 24
5 5 6 6 5 5 7 7 7 9 9 7 5 4 8 7 4 5 6 5 5 6 5 6 10 15 15 16 17 18 18 17 17 16 16 16 22 21 24 28 29 28 26 27
4 7 7 8 8 11 12 12 12 11 8 2 3 5 6 8 5 7 7 5 5 4 6 8 11 14 16 16 15 15 16 17 18 20 21 23 23 21 19 23 24 24 24 24
4 5 7 9 8 10 11 11 12 13 10 5 4 6 5 4 5 5 4 3 3 5 7 7 10 12 14 14 16 20 22 21 20 18 21 19 19 22 24 17 21 23 23 24

GFSNW_925_spd_027.txt.gz
Wind_Speed
23 24 26 29 31 35 25 11 7 16 20 11 5 8 9 9 14 14 15 20 21 17 11 17 17 17 10 12 13 18 35 13 21 31 28 27 26 29 27 17 24 17 12 1
22 23 25 27 28 29 22 9 9 2 15 7 10 13 15 10 12 11 11 10 18 20 18 9 16 15 9 11 14 6 9 17 16 22 25 28 31 30 24 26 18 21 15 7
22 23 23 24 25 25 17 6 5 7 8 6 9 11 16 14 5 7 13 8 11 19 19 17 11 11 13 8 10 15 9 17 23 19 25 24 29 29 30 24 19 17 19 15
23 23 23 22 23 23 14 4 6 6 7 10 13 14 13 13 8 9 14 3 7 9 8 17 10 10 16 8 6 10 7 15 20 26 18 20 28 29 30 30 24 24 15 19
24 24 23 22 20 21 10 5 5 6 10 9 13 15 9 13 13 17 15 9 15 9 11 13 15 14 11 6 15 11 10 12 19 24 24 5 14 26 32 30 27 24 23 14
25 25 24 22 19 14 4 8 11 5 9 10 10 10 14 12 10 12 9 15 13 15 8 14 17 13 18 16 15 13 11 9 12 17 22 11 16 20 20 24 27 22 22 19
27 27 26 22 18 14 8 8 5 4 9 10 11 14 15 14 13 15 18 16 15 15 13 16 19 18 18 16 15 13 12 12 9 12 18 20 14 19 14 14 14 16 12 10
29 28 26 23 20 17 18 11 5 3 7 10 16 9 12 14 13 15 16 12 9 13 15 14 11 12 14 17 14 15 13 11 7 10 16 7 17 14 21 22 20 14 14 13
30 28 25 25 22 20 19 19 14 4 4 7 10 16 13 10 12 14 10 8 9 8 8 9 12 6 5 14 13 14 15 12 11 8 13 18 4 10 2 3 12 20 18 15
29 28 26 25 23 21 20 14 17 8 4 10 17 8 10 9 11 8 11 11 12 8 5 8 10 9 8 6 15 15 12 13 14 13 8 10 5 12 11 12 6 15 4 3
30 29 26 25 24 21 19 13 22 17 4 10 22 22 16 11 9 9 8 8 4 5 3 5 3 7 2 9 12 8 12 15 13 14 16 17 4 7 5 8 10 13 11 10
31 29 26 24 23 20 18 9 16 28 6 6 20 24 30 27 20 9 5 10 13 4 4 3 5 9 4 9 9 9 9 9 10 13 15 3 10 13 6 5 8 8 11 12
31 28 26 23 23 20 16 12 12 11 2 6 13 8 8 15 18 18 6 5 9 11 10 5 5 6 10 6 11 12 12 15 12 14 17 14 15 12 9 11 13 12 14 15
30 27 25 25 22 17 12 8 12 8 2 3 5 7 7 4 10 15 19 16 7 8 4 5 5 5 9 10 11 14 13 13 15 19 19 19 19 17 15 19 15 17 15 16
26 25 24 23 17 9 5 7 9 15 2 3 6 22 7 5 8 17 15 17 12 6 3 4 7 6 8 11 14 16 16 18 14 14 14 13 18 19 21 19 16 17 16 18
25 23 21 14 7 3 3 2 3 7 7 2 3 8 4 12 5 2 6 10 9 7 3 4 5 13 5 5 10 19 17 18 20 19 22 23 19 15 16 21 12 16 19 21
20 17 10 3 9 2 3 4 4 4 4 2 3 4 4 8 5 2 2 3 1 0 1 3 3 2 3 4 13 29 23 25 25 19 13 20 21 13 18 15 14 17 22 22
13 3 10 10 9 6 4 6 3 6 3 2 2 3 4 5 3 0 1 0 2 2 2 2 3 2 4 5 17 24 27 25 27 24 21 20 17 16 16 17 20 16 16 18
2 10 6 1 2 2 2 3 6 3 3 1 1 3 3 4 2 0 2 2 2 1 2 2 2 1 3 16 29 32 33 27 25 22 15 13 15 17 20 22 22 19 16 17
8 7 6 3 4 4 8 3 2 1 1 1 2 1 3 1 1 2 1 3 1 2 2 1 2 3 11 22 24 16 15 7 15 15 10 10 12 17 19 21 20 15 16 12
5 2 4 6 3 2 4 0 4 2 2 2 2 4 3 3 2 2 1 0 0 3 4 5 5 10 24 28 27 24 17 9 6 9 10 11 13 15 15 15 12 10 4 3
3 4 1 3 3 2 4 6 5 5 5 6 7 6 4 2 3 3 4 2 3 6 3 6 7 13 25 24 26 29 26 21 18 12 3 8 15 18 16 8 16 15 22 19
2 2 4 4 4 7 5 5 4 6 7 7 11 8 2 2 5 4 4 7 5 3 5 4 7 15 19 21 18 21 20 22 26 23 21 24 20 28 23 15 25 31 30 30
3 3 6 5 5 5 3 6 8 8 7 11 8 8 1 3 2 5 5 5 5 7 6 5 11 17 17 17 17 18 21 22 20 21 21 24 22 20 26 26 27 31 26 26
4 4 4 4 4 3 6 9 9 11 10 7 5 5 7 5 4 5 6 5 5 6 6 7 11 14 15 17 18 18 18 18 17 16 15 16 21 21 22 26 28 27 27 26
3 5 8 7 10 10 10 10 11 11 11 3 5 5 5 6 4 6 6 2 2 2 6 8 11 15 16 16 16 15 20 19 20 22 23 20 20 18 18 23 24 26 27 26
4 5 6 8 9 9 10 10 10 12 10 8 4 5 4 3 4 4 2 2 2 4 3 5 9 12 15 16 15 17 18 19 20 21 21 19 19 20 20 14 20 23 24 24

GFSNW_925_spd_030.txt.gz
Wind_Speed
24 27 30 32 35 40 30 12 8 15 14 12 8 9 10 7 16 20 17 13 15 10 17 14 16 19 12 30 28 16 34 23 21 27 27 30 28 28 25 13 22 15 14 4
23 25 28 30 32 33 30 9 12 7 18 7 10 14 15 17 13 20 11 18 15 17 13 10 14 17 27 30 28 14 12 19 20 26 23 29 32 29 26 22 18 19 14 7
23 24 26 28 28 29 23 6 7 9 9 11 16 15 15 18 8 15 13 12 14 16 13 13 9 17 15 28 28 15 8 10 21 19 21 19 27 29 28 25 17 16 18 7
24 24 24 25 24 24 16 4 5 9 8 12 14 16 14 19 18 7 14 17 10 14 15 13 9 16 26 25 22 23 8 13 19 29 24 22 26 27 29 30 21 22 18 18
24 24 24 22 20 20 10 3 4 7 13 17 15 12 7 14 16 12 16 17 15 16 14 11 14 16 15 10 22 20 19 8 13 17 22 19 18 31 29 29 29 23 24 18
26 25 24 21 17 12 5 1 7 5 9 14 12 11 15 16 17 14 15 11 18 19 15 15 15 17 15 17 21 18 14 12 9 16 17 21 19 16 28 26 24 24 20 17
27 26 24 21 17 11 11 6 3 3 7 13 13 19 17 14 12 15 16 20 16 21 16 18 17 20 18 18 17 14 12 12 9 11 13 18 12 13 13 21 23 23 18 16
28 26 23 22 18 15 16 11 7 2 4 11 18 16 16 17 15 13 18 15 20 14 17 13 15 16 14 17 18 14 10 10 7 6 8 9 13 14 16 9 15 20 21 16
28 25 24 23 20 17 18 18 20 4 4 8 18 13 20 12 11 12 14 8 13 13 11 9 14 5 12 12 14 13 11 10 7 9 6 12 6 14 3 16 9 21 10 0
27 26 24 22 20 18 17 13 21 6 3 8 16 11 9 12 11 8 10 11 17 10 5 8 11 9 10 6 17 13 11 9 11 8 6 3 13 19 9 13 6 16 21 9
28 27 25 22 20 18 17 13 13 14 3 8 18 20 16 13 8 7 11 8 4 3 4 4 6 6 7 7 4 7 11 11 10 11 9 2 22 11 8 8 12 16 17 19
29 27 24 22 20 17 17 9 12 23 5 6 18 21 26 29 25 12 5 9 13 3 4 5 5 12 7 13 7 9 6 4 7 12 11 4 10 7 7 11 10 12 13 14
27 25 23 20 18 17 14 11 9 9 2 5 9 10 12 14 21 14 3 4 6 5 8 6 6 7 9 6 9 15 10 15 8 9 16 11 9 12 10 10 9 9 10 13
25 23 22 20 17 13 9 5 8 4 2 2 5 9 10 9 3 5 12 11 13 8 6 6 3 4 10 11 16 13 10 13 12 15 15 15 14 14 13 13 14 13 10 13
24 22 19 16 11 4 2 3 4 6 1 2 5 16 12 21 9 14 15 12 7 5 4 4 6 7 8 9 12 14 13 14 11 13 16 14 15 16 15 16 14 14 14 12
20 18 14 7 6 7 3 2 3 5 3 2 3 9 9 14 14 11 10 8 3 2 1 1 3 6 2 5 9 17 19 18 19 10 20 21 20 19 21 15 17 14 15 11
15 8 7 10 8 4 3 3 2 1 3 1 2 4 2 9 6 2 2 4 2 3 2 2 2 2 3 3 13 28 25 26 26 25 22 22 20 14 17 13 17 18 14 16
5 9 11 10 7 4 4 6 5 6 4 1 2 3 3 5 3 2 2 2 2 1 1 2 2 2 1 4 15 21 24 28 27 27 25 24 20 20 18 14 11 13 14 16
8 10 5 1 2 2 3 4 5 2 1 2 1 1 3 2 1 0 2 1 0 2 1 1 2 2 2 14 22 23 10 12 15 22 24 23 19 20 19 17 16 16 14 17
8 4 5 3 4 3 8 2 2 3 2 1 2 1 2 2 1 1 2 2 1 1 1 5 0 2 10 20 21 22 21 15 14 11 13 15 13 11 15 18 14 15 16 18
4 7 2 5 3 2 3 1 2 2 2 3 3 6 4 4 2 1 2 1 2 2 3 2 4 7 20 22 23 26 23 23 16 13 8 4 5 10 11 12 15 16 12 11
4 2 2 5 4 1 3 4 4 4 4 7 6 1 5 3 4 3 5 2 3 4 3 4 4 9 17 22 23 22 28 28 26 21 15 10 8 3 5 5 11 13 18 20
4 3 2 2 1 6 4 3 4 5 4 11 9 10 1 5 6 4 3 5 5 2 4 4 4 11 15 17 18 20 18 27 26 26 29 30 27 31 20 12 22 30 27 25
1 2 4 3 3 4 3 6 7 7 7 9 6 4 4 5 3 4 4 4 5 4 5 5 7 13 15 15 15 16 18 17 16 18 23 23 23 21 28 23 26 35 26 25
2 1 1 4 8 7 8 8 8 10 11 5 2 2 5 5 4 4 6 5 4 4 5 4 7 13 14 13 15 15 15 13 12 13 11 18 21 20 24 30 33 30 23 24
1 3 6 7 9 9 10 9 9 10 10 4 6 5 4 6 4 5 6 4 3 4 4 3 7 12 12 12 10 12 15 17 15 14 14 17 16 16 16 22 24 23 23 23
3 4 6 7 8 8 9 9 9 13 8 8 3 5 6 4 4 3 2 2 4 5 7 5 8 7 10 11 13 14 13 13 16 15 19 12 16 20 17 11 15 15 16 18

GFSNW_925_spd_033.txt.gz
Wind_Speed
26 27 29 32 35 38 33 9 5 15 22 6 4 6 11 13 13 14 12 14 12 10 13 7 14 12 10 24 23 23 16 8 17 27 16 25 16 16 18 11 14 6 5 10
26 26 27 29 30 30 19 7 4 12 24 5 8 12 15 15 10 11 13 7 12 15 5 5 8 9 12 15 25 17 15 5 9 18 13 16 30 23 16 9 5 13 5 6
25 24 25 26 26 25 19 4 5 5 7 10 15 13 14 13 9 7 10 9 14 11 10 4 7 14 11 17 24 33 22 10 11 11 16 8 25 22 21 13 13 16 8 7
25 23 23 23 23 22 12 3 4 7 5 8 16 17 15 12 12 8 6 9 11 13 11 9 7 13 18 19 22 16 11 7 12 14 14 13 17 25 22 23 13 17 12 7
25 24 23 19 17 19 5 2 2 3 7 13 14 12 11 18 17 14 11 12 9 13 13 3 13 16 9 5 16 17 17 7 16 5 11 14 18 26 23 21 19 10 14 8
27 25 22 18 14 9 4 3 1 1 5 8 11 9 14 18 16 10 15 14 14 10 14 14 16 11 13 12 13 17 15 10 10 5 5 6 3 14 24 18 18 16 13 8
27 24 22 19 14 9 10 8 3 2 4 6 11 20 21 16 18 15 17 16 6 10 16 21 15 14 14 14 14 3 20 18 4 5 5 2 7 4 11 18 9 19 14 11
26 24 21 19 17 13 15 14 5 2 3 6 15 15 16 15 15 14 17 11 5 10 9 15 11 7 10 13 14 11 16 11 4 4 2 3 4 12 11 4 11 23 11 4
26 24 22 19 17 15 15 18 18 4 1 5 8 15 14 13 6 8 12 15 13 12 4 3 3 3 5 6 6 14 15 10 2 4 4 2 12 26 26 8 11 20 20 19
26 24 21 19 16 14 13 11 14 5 3 4 5 3 5 5 7 5 9 13 5 7 4 3 3 4 6 4 9 9 6 3 4 4 3 6 18 24 14 7 3 12 17 16
25 22 20 18 16 13 11 9 10 11 3 5 10 8 7 4 5 4 10 8 5 3 7 4 3 3 4 3 3 7 0 3 2 1 4 4 27 19 14 5 9 11 13 17
23 21 19 17 14 12 10 6 10 15 3 3 8 16 19 17 19 9 3 4 10 1 4 4 3 5 3 10 6 12 5 3 2 6 2 11 9 14 11 11 9 10 9 12
23 20 19 16 13 9 7 7 5 4 1 3 3 3 18 10 17 14 3 2 5 5 6 4 3 3 6 5 1 6 8 6 3 7 12 15 8 3 17 9 9 8 10 9
22 20 17 13 10 5 5 3 3 3 2 1 4 8 5 12 10 8 11 11 5 4 3 2 2 3 8 4 7 9 6 10 10 9 8 11 11 15 18 17 12 6 6 6
20 17 13 11 3 4 5 2 3 4 1 2 4 15 12 18 16 18 18 8 5 4 3 2 2 3 4 4 5 4 6 10 7 7 16 4 13 16 19 16 13 10 16 7
15 12 7 7 10 6 4 2 3 3 3 1 2 2 4 16 13 15 14 10 5 2 2 3 4 8 4 3 3 3 16 19 20 18 17 18 17 17 17 12 12 10 9 10
8 6 8 7 7 4 2 2 4 4 5 1 1 2 1 5 3 3 3 7 3 2 2 2 3 3 3 3 4 16 24 24 23 22 17 19 14 8 11 13 15 16 5 8
6 8 7 7 5 5 3 5 8 7 2 2 1 2 1 3 2 2 2 2 1 1 1 0 1 2 0 3 10 21 22 20 19 17 17 23 16 13 13 13 12 10 7 5
7 5 2 1 0 2 3 3 5 2 2 1 1 1 2 2 1 2 1 1 1 2 0 1 0 1 1 12 15 18 22 11 12 18 13 15 16 11 10 10 13 11 7 6
4 1 4 2 3 2 5 2 2 3 2 2 2 1 1 3 2 2 2 1 1 1 1 3 0 2 9 17 14 19 21 17 16 8 6 6 6 8 9 11 7 6 5 6
2 4 1 3 5 2 3 2 3 2 2 5 2 4 3 4 2 2 3 2 2 1 2 1 3 4 9 14 16 20 22 24 25 22 19 16 12 6 5 3 6 8 7 7
6 6 2 4 3 2 2 3 5 1 3 3 4 4 4 3 3 2 4 3 4 4 3 4 4 6 12 12 14 13 17 22 24 28 22 21 22 18 3 4 6 11 14 16
4 4 2 2 2 3 3 2 5 3 3 5 1 3 4 3 4 4 3 2 3 3 3 4 2 9 10 9 9 9 12 19 21 23 31 33 33 37 27 14 16 25 26 25
4 3 5 1 3 3 4 6 5 6 8 9 3 2 2 2 3 3 4 3 4 4 4 2 4 7 10 9 8 9 10 8 12 14 21 24 26 27 33 32 22 25 24 24
3 1 1 4 6 7 8 7 7 7 9 6 4 3 4 3 4 4 5 4 4 3 3 4 4 4 7 9 7 8 10 9 6 10 11 15 20 20 20 23 24 28 26 26
3 1 5 5 7 7 7 6 7 8 9 6 4 3 3 4 3 4 4 3 2 3 1 3 2 4 5 6 7 6 8 10 11 9 10 8 10 12 13 15 21 22 23 23
3 2 5 4 4 5 6 6 7 10 8 7 3 5 5 3 3 2 1 1 3 5 2 3 5 3 5 4 7 11 10 8 10 12 9 11 9 10 12 9 7 8 12 17

GFSNW_925_spd_036.txt.gz
Wind_Speed
27 26 28 29 31 34 32 9 4 13 35 4 2 2 5 4 4 7 3 3 3 3 3 5 5 7 5 13 15 14 14 6 6 14 8 2 20 9 11 9 11 3 5 10
25 24 25 26 27 27 15 5 4 11 15 4 4 6 7 3 1 2 3 3 3 3 4 3 3 3 9 13 9 8 9 4 7 6 5 6 5 15 13 6 5 11 11 11
23 23 23 24 24 22 18 3 4 4 4 2 2 6 5 8 7 4 4 5 3 3 2 6 5 2 5 10 11 9 10 5 7 6 4 8 4 9 13 17 9 10 14 10
24 23 21 21 20 19 11 0 2 1 4 5 10 3 6 9 7 4 5 4 3 4 3 6 3 9 6 9 9 5 4 6 7 18 24 21 20 6 19 14 14 15 12 7
23 21 20 17 15 16 1 1 2 3 4 7 6 6 4 9 14 9 6 7 13 5 4 6 7 12 5 5 5 3 5 5 9 11 12 15 11 7 7 18 15 7 8 9
23 21 18 16 12 8 3 1 1 2 2 3 4 3 10 18 14 8 15 12 7 6 9 8 11 11 11 10 5 5 4 3 5 6 9 7 2 10 7 14 8 13 6 9
23 21 19 16 11 8 9 7 2 2 5 5 4 11 17 14 13 11 14 7 3 7 8 9 8 10 12 10 9 9 6 3 3 5 9 7 7 20 14 20 19 21 14 10
23 21 19 16 13 11 13 15 5 3 3 5 8 11 7 13 13 10 13 7 4 7 5 3 4 3 3 8 11 10 10 4 4 2 4 1 13 16 15 4 13 20 17 10
23 21 18 16 14 12 14 17 16 3 1 4 8 6 10 5 3 5 5 7 7 5 3 2 1 3 3 3 7 11 8 10 3 4 2 5 11 24 21 8 14 21 19 18
21 18 16 15 13 12 13 8 10 4 2 3 4 3 3 4 2 3 4 9 6 4 5 3 2 2 5 3 2 1 4 7 3 1 4 5 20 29 14 9 3 12 13 15
19 18 15 14 12 11 9 7 7 9 3 3 5 4 3 6 2 2 4 5 5 4 4 3 3 3 4 3 3 2 4 4 4 5 5 4 19 13 13 10 6 12 13 10
19 17 14 12 10 8 6 5 8 15 1 3 10 16 20 14 10 3 2 2 2 2 4 3 3 2 3 5 3 3 4 1 2 4 3 4 4 6 13 16 13 5 6 7
18 16 12 10 7 4 4 4 4 2 1 3 3 3 14 12 10 15 1 3 3 5 4 2 3 2 4 5 3 4 5 2 2 3 6 9 8 9 15 16 17 15 12 6
16 12 9 6 3 1 4 3 2 1 1 1 3 5 5 16 17 3 18 7 3 1 2 1 3 3 4 2 3 2 5 6 8 4 5 5 7 9 13 20 18 16 12 12
12 10 7 4 8 8 6 1 4 2 1 1 4 13 7 15 13 16 17 11 4 2 3 2 2 1 3 3 2 2 6 7 3 4 9 7 16 8 13 16 19 16 13 12
7 7 8 9 10 8 5 0 3 3 2 1 3 4 4 11 10 15 11 8 4 2 2 2 2 4 4 2 1 3 17 18 16 10 9 11 17 20 15 14 17 11 15 7
6 7 6 4 5 4 2 1 1 3 3 2 3 4 2 5 3 4 3 7 2 2 2 2 2 2 4 2 3 18 19 16 14 12 11 12 14 9 7 13 7 7 17 14
4 5 5 4 4 5 1 4 7 6 2 2 1 3 4 7 3 3 4 3 3 5 2 2 3 2 1 1 11 16 19 17 9 13 9 12 15 16 10 7 9 4 5 9
3 2 2 3 3 2 2 6 5 2 1 1 1 1 3 2 2 2 3 3 3 1 2 3 2 3 4 10 16 19 19 18 18 17 12 13 11 8 11 10 11 7 8 6
1 3 1 2 2 3 8 2 0 0 1 1 3 2 2 3 1 1 1 1 2 3 3 2 3 2 8 6 6 10 16 18 21 14 17 11 7 5 8 9 6 6 4 2
0 1 1 3 6 1 2 1 2 1 2 3 3 4 2 2 2 2 2 2 1 2 2 2 3 4 10 8 6 6 11 13 15 17 17 17 14 5 1 2 5 6 8 5
2 7 3 4 2 1 1 3 4 1 3 3 3 3 4 2 3 2 2 1 1 2 3 3 3 4 8 8 7 4 5 11 13 19 17 23 24 23 15 13 12 13 15 14
3 1 2 2 2 5 3 4 5 4 3 3 2 2 4 2 2 2 3 3 1 3 4 1 3 5 7 8 6 6 2 7 12 14 21 26 27 33 31 20 24 22 23 22
2 2 5 1 5 3 2 3 3 6 3 7 3 3 3 3 2 0 4 2 4 3 3 1 2 4 6 7 6 5 3 3 5 8 13 16 20 22 27 28 28 24 23 24
3 2 0 1 3 2 3 2 4 5 4 5 3 3 4 4 5 3 3 4 3 2 3 3 3 5 5 7 6 7 6 4 3 3 6 9 12 16 18 22 25 25 25 27
2 1 2 1 4 4 4 3 4 4 5 3 4 4 4 5 3 4 2 2 1 2 4 4 4 2 4 6 6 7 10 4 10 8 6 6 4 6 9 10 12 16 21 20
3 1 2 4 2 3 3 1 4 5 4 3 4 4 1 2 3 1 4 3 3 3 3 2 3 3 4 5 8 10 13 8 6 12 9 7 7 7 5 3 4 1 6 8

GFSNW_925_spd_042.txt.gz
Wind_Speed
25 25 25 26 28 33 23 6 3 21 25 4 2 2 5 6 2 2 3 4 6 6 6 3 5 7 5 8 7 3 2 4 7 9 18 9 7 6 10 12 17 3 4 9
24 23 23 24 23 24 13 4 3 13 13 4 4 6 5 4 3 3 2 3 6 4 5 2 5 4 5 10 7 6 7 4 6 7 10 4 5 8 9 3 6 19 15 6
23 22 22 21 19 19 13 3 4 4 5 2 2 5 4 5 5 1 5 4 2 2 1 3 3 4 6 9 6 7 6 6 9 7 4 6 7 12 7 3 8 11 17 10
22 21 20 18 16 15 7 2 0 0 4 3 3 3 4 7 5 4 7 3 4 4 3 2 4 5 3 6 9 4 3 7 12 21 21 17 17 16 14 5 7 11 8 17
22 21 19 16 13 11 2 2 2 2 2 2 6 2 2 5 6 2 5 7 8 7 4 6 8 6 5 7 8 7 5 6 6 11 17 18 19 17 17 14 7 8 6 6
21 20 18 14 10 6 1 0 0 1 2 2 3 1 4 7 10 7 15 8 6 8 14 10 11 10 7 8 9 12 6 3 3 6 5 10 8 11 5 7 10 2 8 2
21 18 15 12 8 5 4 2 1 1 3 3 3 6 14 14 13 7 10 12 8 6 7 9 10 10 15 14 14 11 7 5 3 6 4 10 6 4 14 17 15 14 9 13
18 16 13 10 8 6 8 5 2 1 2 4 8 9 8 11 11 7 5 8 9 5 3 3 5 2 4 9 16 16 10 4 4 3 4 9 3 6 5 5 10 18 15 14
17 15 12 10 8 6 6 8 8 2 1 2 6 6 8 4 4 4 4 9 6 2 1 3 3 2 1 3 3 9 6 7 3 2 5 5 4 11 10 6 5 19 18 15
17 14 12 9 7 4 4 3 7 2 1 3 2 3 3 2 3 3 5 8 6 2 3 2 2 2 3 4 3 5 4 4 13 11 5 3 12 13 8 4 2 15 16 12
16 13 10 7 5 2 2 1 4 5 2 3 4 3 3 3 1 2 6 5 2 3 3 2 3 2 5 3 3 1 1 3 1 3 4 4 18 4 7 1 7 10 14 15
14 9 7 5 3 0 2 1 3 6 2 3 9 12 7 5 5 2 2 3 3 2 3 3 3 3 4 7 2 6 3 3 2 4 4 9 8 11 8 9 5 11 13 15
10 7 6 4 1 2 4 3 2 1 1 4 4 3 10 7 8 4 2 2 3 3 1 2 2 3 4 4 5 4 5 9 3 4 7 11 6 3 11 8 10 11 13 14
9 7 4 1 2 4 4 2 2 0 2 1 4 6 3 9 7 4 8 5 6 3 2 2 2 3 6 4 4 4 4 8 7 3 4 9 4 14 11 14 12 12 12 13
7 7 7 4 4 3 3 2 2 1 2 2 4 9 3 6 12 13 11 4 3 3 3 3 4 2 4 3 3 2 7 3 2 1 10 5 8 12 15 15 14 12 11 15
5 5 4 2 0 2 2 1 3 3 1 2 2 3 3 4 6 12 9 6 3 2 2 2 2 2 4 3 3 14 15 13 11 7 12 12 13 13 14 13 15 11 10 7
2 2 1 1 2 2 1 2 3 3 2 1 3 4 2 0 3 5 3 6 3 3 1 2 2 2 3 2 3 13 15 13 12 13 11 8 8 8 14 13 17 16 10 10
2 2 1 1 2 3 2 1 3 1 0 2 2 3 1 2 1 1 2 2 3 4 1 2 2 2 2 3 9 11 12 12 12 16 13 9 12 8 6 9 9 8 9 8
4 4 4 4 2 1 2 3 2 2 0 1 0 2 2 1 1 1 2 2 2 1 2 3 3 3 4 5 8 7 12 12 13 14 16 16 16 11 9 10 7 4 7 6
2 2 2 2 2 2 2 2 1 1 1 1 3 1 2 1 1 2 2 1 2 2 1 2 3 3 4 5 6 5 6 9 11 8 15 12 15 14 15 16 13 6 6 4
1 1 1 1 2 2 2 2 1 1 3 3 3 4 2 1 1 1 1 2 1 2 1 1 2 3 4 4 7 4 5 8 9 11 10 10 10 12 12 13 14 16 17 13
1 1 1 1 0 1 2 3 3 0 3 2 2 2 3 1 1 1 0 1 2 2 1 3 1 3 4 4 4 4 4 5 6 10 11 15 13 12 12 12 14 18 20 20
1 2 1 3 1 5 3 4 5 3 3 3 1 2 2 0 1 2 1 2 1 3 3 1 4 3 5 4 3 1 5 4 3 4 8 10 12 13 15 16 17 16 18 19
1 1 5 2 4 2 4 4 4 5 4 4 1 2 1 1 1 1 3 0 2 2 2 3 3 4 5 5 2 1 2 5 3 1 2 4 8 11 17 18 17 16 16 17
1 2 2 4 3 3 4 3 3 3 2 2 1 2 2 2 3 2 2 3 2 2 4 3 4 3 4 5 4 4 2 4 5 4 1 2 4 4 6 11 14 15 13 13
2 3 2 2 1 4 2 2 3 1 1 1 2 3 3 3 1 2 0 2 3 3 3 3 3 4 4 5 4 5 7 3 9 9 6 4 4 4 4 5 6 4 9 8
3 4 3 2 2 4 3 3 3 1 2 2 2 3 1 0 2 2 3 4 3 3 4 2 2 4 6 6 5 6 5 4 2 4 8 9 8 8 8 10 9 7 6 3

GFSNW_925_spd_045.txt.gz
Wind_Speed
22 23 24 27 29 33 19 6 1 21 18 4 2 2 6 5 4 1 3 3 7 8 7 6 6 8 5 10 9 4 4 3 5 13 17 22 17 11 22 14 23 19 16 13
22 22 22 23 23 25 10 3 3 12 9 3 4 5 4 4 4 4 3 3 5 5 8 4 8 6 6 11 9 6 7 3 5 11 11 18 11 17 17 24 21 23 17 14
21 21 21 19 19 19 11 2 3 4 5 3 3 5 4 6 6 2 4 4 2 3 6 5 2 6 9 12 7 8 6 4 7 12 17 11 10 12 16 20 21 21 21 21
21 21 19 16 15 15 6 3 2 1 4 5 6 6 5 7 6 6 7 4 7 6 6 5 8 7 6 11 11 8 7 7 8 14 20 24 26 26 26 20 23 22 22 22
21 19 16 14 11 11 4 2 2 1 1 2 4 1 2 6 6 2 5 9 11 9 7 10 7 7 8 11 12 11 8 6 9 18 23 23 28 29 26 23 24 19 17 15
19 16 13 11 8 5 2 2 2 0 2 3 3 3 4 8 12 7 12 11 1 5 10 13 17 13 13 12 9 12 9 5 7 21 17 17 22 30 25 21 17 21 22 15
16 14 11 8 6 2 1 1 1 1 2 2 4 8 12 11 10 7 9 10 5 5 7 9 16 18 19 19 20 14 9 11 7 14 15 11 9 8 26 12 7 2 8 3
15 12 10 7 4 2 4 2 1 1 2 3 6 9 7 10 8 7 8 6 6 11 8 4 6 4 6 15 23 21 18 8 6 5 7 12 11 5 23 16 8 10 6 5
14 11 8 6 3 1 2 4 5 2 1 1 5 4 7 4 5 6 3 7 7 3 3 3 4 4 4 2 2 19 18 13 7 4 7 5 5 4 6 8 6 12 10 11
13 8 6 3 2 1 3 2 5 2 1 2 1 2 4 4 3 4 6 9 4 1 2 3 3 2 2 4 8 8 9 5 13 13 8 9 11 10 7 6 4 8 9 10
10 6 4 3 1 2 4 3 2 3 1 4 2 3 3 3 2 2 5 4 0 2 3 3 3 3 3 2 3 6 6 6 7 8 6 9 17 5 4 5 7 6 9 13
8 5 4 3 1 3 4 3 2 2 2 3 5 11 11 5 6 3 1 3 3 2 3 2 3 2 4 7 4 3 2 3 2 2 1 13 5 14 11 8 7 10 11 14
6 3 2 3 1 5 3 4 4 2 1 3 2 2 3 2 6 5 2 2 2 2 2 2 2 3 3 4 3 3 2 5 2 3 4 12 6 11 13 11 9 9 11 12
5 3 2 6 5 5 3 1 3 2 1 2 2 1 0 4 5 3 7 8 4 4 1 2 2 3 6 4 3 3 4 7 6 4 8 12 12 13 15 14 11 12 12 11
3 5 5 6 5 5 3 2 3 3 2 2 3 5 2 1 6 7 6 2 2 2 2 3 4 3 4 4 3 4 8 6 5 3 12 7 9 14 14 15 14 12 12 14
2 2 2 2 2 3 1 1 4 4 2 2 2 3 2 1 3 5 10 8 4 3 3 2 3 3 5 3 3 14 14 13 11 6 14 9 12 12 12 11 12 11 9 9
3 2 1 2 3 4 2 2 2 3 1 1 3 2 2 3 4 4 2 5 3 2 2 3 3 2 4 2 3 14 15 16 13 14 13 11 15 9 12 12 11 9 8 9
5 4 2 1 3 4 3 2 2 3 1 2 2 2 1 1 1 2 4 3 2 4 2 2 3 4 3 3 13 11 17 15 16 16 16 13 15 16 19 17 11 10 8 8
4 5 3 2 2 2 1 3 3 2 1 2 1 2 3 1 1 1 1 2 3 2 3 3 3 3 4 6 10 13 12 13 15 15 15 15 15 15 16 17 16 14 11 8
2 3 2 2 1 3 4 2 2 2 2 1 2 1 1 3 3 1 2 0 1 2 3 3 4 2 3 6 7 4 9 11 13 15 16 12 15 14 14 15 13 14 11 11
2 2 1 1 3 1 3 1 1 0 2 3 3 4 2 2 1 2 1 2 0 1 1 3 3 2 3 6 6 4 6 9 10 12 14 14 12 13 13 12 14 16 17 15
2 1 1 2 2 1 1 1 1 2 2 3 2 0 3 1 1 2 2 2 2 2 2 1 1 3 2 5 7 4 3 5 6 9 10 14 17 19 20 18 18 18 18 18
1 1 1 1 0 3 2 3 3 3 2 2 1 2 2 2 2 1 2 2 3 3 1 1 3 3 2 2 5 5 4 2 3 4 6 9 12 16 18 17 20 20 20 19
1 1 5 1 2 3 3 3 4 3 3 5 3 1 2 2 3 1 1 2 3 2 1 1 1 1 3 2 1 3 5 7 4 3 3 5 6 7 8 12 14 16 18 17
1 1 2 4 3 4 3 2 3 3 2 2 2 2 2 2 2 1 2 3 1 1 1 1 1 4 4 2 2 2 3 6 7 6 6 5 5 7 9 8 8 10 12 16
2 3 3 2 3 3 2 3 3 1 1 1 2 1 1 2 1 1 2 1 1 1 2 2 4 4 4 3 3 4 4 4 6 8 7 7 6 7 9 10 8 5 6 11
3 3 3 5 5 5 3 2 2 3 2 2 2 3 2 1 2 1 2 2 1 1 1 2 3 4 5 5 5 5 3 2 3 4 4 5 6 6 7 7 5 6 5 6

GFSNW_925_spd_048.txt.gz
Wind_Speed
22 23 24 26 28 32 14 5 1 15 11 2 2 3 5 3 5 3 7 6 12 12 10 11 11 9 5 7 7 3 1 4 8 12 10 11 11 15 18 17 24 20 19 10
21 22 22 22 23 23 12 4 3 12 13 2 5 6 4 3 7 5 6 7 5 8 11 7 9 6 2 9 9 3 4 4 6 8 17 16 12 20 15 16 21 23 20 19
21 20 19 18 18 19 7 3 1 4 7 9 8 5 8 6 2 5 6 9 10 12 12 12 6 8 6 10 11 6 2 11 12 12 14 11 10 12 14 17 17 20 23 21
19 17 16 15 15 16 5 4 4 5 4 6 5 3 3 4 6 5 7 5 8 9 7 14 16 12 11 12 12 11 8 10 14 17 16 16 18 19 19 20 18 22 21 24
16 15 13 12 11 10 4 3 2 3 3 3 5 5 5 7 5 2 6 8 10 7 7 14 7 10 15 15 14 17 15 13 13 17 16 18 23 23 26 25 25 25 24 29
14 12 10 9 8 7 5 5 3 2 0 1 3 3 2 5 10 4 9 13 9 8 12 13 17 17 14 12 13 17 15 10 12 18 18 20 23 21 27 30 27 27 25 25
12 10 8 7 5 4 5 3 2 2 3 3 4 7 8 9 8 8 10 7 5 2 11 11 14 18 19 21 19 18 14 14 11 14 16 19 22 24 27 31 30 28 26 27
11 9 6 5 3 2 3 4 1 1 1 3 3 8 8 9 6 7 5 5 7 12 14 6 7 11 12 23 25 23 20 12 7 10 12 17 27 24 22 30 30 24 30 30
9 6 5 3 2 2 3 3 3 0 1 1 4 5 7 4 8 7 3 7 9 5 2 3 4 3 3 3 5 19 23 19 11 10 10 15 8 18 29 34 18 17 13 17
8 5 3 2 1 3 3 3 3 1 2 1 3 2 3 4 3 4 7 9 3 3 1 3 3 3 1 3 4 5 14 15 15 15 13 13 14 19 23 9 10 12 4 5
7 4 2 2 1 3 4 4 3 2 2 4 2 0 4 3 3 3 6 6 2 2 2 2 2 3 2 3 2 3 7 6 7 9 9 15 8 16 6 4 11 7 2 7
5 3 1 2 1 4 4 3 3 4 3 4 4 6 6 6 5 3 3 5 3 2 3 2 3 2 3 7 2 1 2 4 2 5 4 4 12 17 11 8 4 3 7 10
3 2 0 2 2 4 2 1 4 2 3 4 3 3 2 2 4 4 3 2 6 2 0 2 2 2 3 4 3 3 2 7 4 3 6 10 10 11 12 3 3 5 8 11
2 0 3 5 4 5 3 1 1 3 4 4 5 4 3 2 3 1 7 12 7 6 2 3 2 3 5 3 3 2 2 7 6 5 5 12 7 12 11 9 8 9 9 11
2 3 4 5 4 5 4 5 3 2 4 4 3 5 2 1 2 5 6 7 5 2 1 2 2 3 3 3 4 2 7 5 4 2 11 5 10 12 12 8 10 9 9 12
2 2 3 4 4 3 4 2 3 3 2 3 3 3 5 2 4 6 6 4 3 3 2 1 2 3 4 3 3 12 16 12 12 8 14 10 14 12 16 13 10 7 9 12
5 4 3 4 5 3 5 5 3 2 3 3 4 2 2 1 2 2 3 2 2 3 2 5 2 3 3 3 5 17 16 16 15 15 14 14 17 13 18 15 11 11 13 13
5 6 4 3 5 6 5 3 2 2 5 3 3 1 4 1 1 2 3 4 2 3 3 3 6 2 4 3 15 16 18 15 18 16 14 11 14 16 17 20 18 16 14 14
3 5 4 2 3 3 0 3 2 3 3 2 2 3 4 3 1 1 2 3 1 1 2 3 4 3 3 8 12 13 15 17 17 16 16 17 18 17 18 19 20 17 16 14
3 5 5 3 3 3 3 0 2 3 3 3 3 1 2 3 3 1 1 2 1 1 2 2 2 2 2 7 9 9 10 13 15 17 19 21 21 18 18 15 13 14 13 14
2 4 1 4 5 3 4 2 4 3 3 4 3 4 5 2 2 1 2 1 1 1 1 2 1 3 4 6 6 5 7 9 11 13 14 14 15 14 16 18 18 20 19 16
2 1 1 3 3 4 4 1 2 3 3 0 5 4 2 0 1 1 2 2 2 2 1 1 2 3 5 5 6 6 3 5 7 10 11 14 16 18 17 18 19 20 20 18
1 3 3 3 3 2 1 2 4 4 5 3 4 4 1 2 2 2 3 4 1 2 2 2 3 4 3 5 5 5 4 2 2 5 8 10 12 13 16 16 20 21 20 20
3 3 3 3 2 3 4 7 7 6 5 6 5 1 3 3 4 2 3 2 3 2 1 3 1 3 2 3 5 6 7 4 3 3 5 8 10 13 14 16 15 17 21 21
3 3 3 3 4 6 4 4 5 3 4 5 4 4 3 3 3 2 0 3 1 2 2 4 6 5 3 1 4 6 7 7 4 4 5 8 9 11 13 12 13 13 15 18
3 4 5 4 6 8 5 4 6 1 3 1 1 3 2 4 2 3 4 4 3 3 3 5 4 4 2 3 4 4 5 7 6 6 7 7 9 10 10 11 12 12 11 13
3 4 4 6 7 7 7 7 7 2 4 3 3 4 2 4 4 4 1 2 6 5 5 3 4 2 3 4 5 3 2 4 4 4 5 8 5 8 11 9 10 11 11 8